Time,TemperatureF,DewpointF,PressureIn,WindDirection,WindDirectionDegrees,WindSpeedMPH,WindSpeedGustMPH,Humidity,HourlyPrecipIn,Conditions,Clouds,dailyrainin,SoftwareType,DateUTC
2013-03-18 00:02:00,28.0,23.0,-100.00,SE,145,16.0,21.0,79,0.00,,,0.00,,2013-03-18 05:02:00,
2013-03-18 00:12:00,28.0,23.0,-100.00,SSE,150,16.0,24.0,79,0.00,,,0.00,,2013-03-18 05:12:00,
2013-03-18 00:22:00,28.0,23.0,-100.00,SSE,155,20.0,24.0,80,0.00,,,0.00,,2013-03-18 05:22:00,
2013-03-18 00:32:00,29.0,23.0,-100.00,SSE,155,17.0,26.0,80,0.00,,,0.00,,2013-03-18 05:32:00,
2013-03-18 00:43:00,29.0,23.0,-100.00,SSE,155,19.0,24.0,80,0.00,,,0.00,,2013-03-18 05:43:00,
2013-03-18 00:52:00,29.0,23.0,-100.00,SSE,160,20.0,26.0,80,0.00,,,0.00,,2013-03-18 05:52:00,
2013-03-18 01:02:00,29.0,23.0,-100.00,SSE,155,23.0,29.0,80,0.00,,,0.00,,2013-03-18 06:02:00,
2013-03-18 01:12:00,29.0,23.0,-100.00,SSE,150,21.0,29.0,80,0.00,,,0.00,,2013-03-18 06:12:00,
2013-03-18 01:22:00,29.0,23.0,-100.00,SSE,155,21.0,29.0,80,0.00,,,0.00,,2013-03-18 06:22:00,
2013-03-18 01:32:00,29.0,25.0,-100.00,SSE,155,21.0,29.0,80,0.00,,,0.00,,2013-03-18 06:32:00,
2013-03-18 01:42:00,29.0,25.0,-100.00,SSE,155,22.0,29.0,80,0.00,,,0.00,,2013-03-18 06:42:00,
2013-03-18 01:52:00,29.0,25.0,-100.00,SSE,155,19.0,26.0,81,0.00,,,0.00,,2013-03-18 06:52:00,
2013-03-18 02:02:00,29.0,25.0,-100.00,SSE,150,23.0,28.0,81,0.00,,,0.00,,2013-03-18 07:02:00,
2013-03-18 02:12:00,29.0,25.0,-100.00,SSE,155,24.0,32.0,81,0.00,,,0.00,,2013-03-18 07:12:00,
2013-03-18 02:22:00,29.0,25.0,-100.00,SSE,150,26.0,31.0,81,0.00,,,0.00,,2013-03-18 07:22:00,
2013-03-18 02:32:00,29.0,25.0,-100.00,SSE,150,24.0,37.0,81,0.00,,,0.00,,2013-03-18 07:32:00,
2013-03-18 02:42:00,30.0,25.0,-100.00,SSE,150,25.0,34.0,81,0.00,,,0.00,,2013-03-18 07:42:00,
2013-03-18 02:52:00,30.0,25.0,-100.00,SSE,150,22.0,32.0,81,0.00,,,0.00,,2013-03-18 07:52:00,
2013-03-18 03:02:00,30.0,25.0,-100.00,SSE,160,22.0,30.0,81,0.00,,,0.00,,2013-03-18 08:02:00,
2013-03-18 03:12:00,30.0,25.0,-100.00,SSE,160,20.0,29.0,82,0.00,,,0.00,,2013-03-18 08:12:00,
2013-03-18 03:22:00,30.0,25.0,-100.00,SSE,155,21.0,30.0,82,0.00,,,0.00,,2013-03-18 08:22:00,
2013-03-18 03:32:00,30.0,25.0,-100.00,SSE,155,20.0,27.0,82,0.00,,,0.00,,2013-03-18 08:32:00,
2013-03-18 03:43:00,30.0,25.0,-100.00,SSE,160,19.0,28.0,82,0.00,,,0.00,,2013-03-18 08:43:00,
2013-03-18 03:52:00,30.0,25.0,-100.00,SSE,165,19.0,24.0,82,0.00,,,0.00,,2013-03-18 08:52:00,
2013-03-18 04:02:00,30.0,25.0,-100.00,SSE,165,17.0,22.0,82,0.00,,,0.00,,2013-03-18 09:02:00,
2013-03-18 04:12:00,30.0,25.0,-100.00,South,170,15.0,20.0,83,0.00,,,0.00,,2013-03-18 09:12:00,
2013-03-18 04:22:00,30.0,27.0,-100.00,South,175,19.0,24.0,85,0.00,,,0.00,,2013-03-18 09:22:00,
2013-03-18 04:33:00,30.0,27.0,-100.00,South,175,17.0,24.0,87,0.00,,,0.00,,2013-03-18 09:33:00,
2013-03-18 04:42:00,29.0,27.0,-100.00,South,175,21.0,26.0,91,0.00,,,0.00,,2013-03-18 09:42:00,
2013-03-18 04:53:00,29.0,27.0,-100.00,South,175,16.0,21.0,93,0.00,,,0.00,,2013-03-18 09:53:00,
2013-03-18 05:03:00,29.0,27.0,-100.00,South,175,16.0,21.0,95,0.00,,,0.00,,2013-03-18 10:03:00,
2013-03-18 05:12:00,29.0,27.0,-100.00,South,175,14.0,19.0,95,0.00,,,0.00,,2013-03-18 10:12:00,
2013-03-18 05:23:00,29.0,28.0,-100.00,South,175,15.0,21.0,96,0.00,,,0.00,,2013-03-18 10:23:00,
2013-03-18 05:33:00,29.0,28.0,-100.00,SSE,165,17.0,23.0,96,0.00,,,0.00,,2013-03-18 10:33:00,
2013-03-18 05:42:00,29.0,28.0,-100.00,South,170,17.0,21.0,96,0.00,,,0.00,,2013-03-18 10:42:00,
2013-03-18 05:52:00,29.0,28.0,-100.00,South,175,14.0,21.0,96,0.00,,,0.00,,2013-03-18 10:52:00,
2013-03-18 06:03:00,29.0,28.0,-100.00,South,180,14.0,19.0,96,0.00,,,0.00,,2013-03-18 11:03:00,
2013-03-18 06:12:00,29.0,28.0,-100.00,South,180,14.0,19.0,96,0.00,,,0.00,,2013-03-18 11:12:00,
2013-03-18 06:22:00,29.0,28.0,-100.00,South,170,17.0,20.0,96,0.00,,,0.00,,2013-03-18 11:22:00,
2013-03-18 06:32:00,29.0,28.0,-100.00,South,175,13.0,17.0,96,0.00,,,0.00,,2013-03-18 11:32:00,
2013-03-18 06:42:00,29.0,28.0,-100.00,South,175,15.0,19.0,96,0.00,,,0.00,,2013-03-18 11:42:00,
2013-03-18 06:52:00,29.0,28.0,-100.00,South,180,14.0,19.0,96,0.00,,,0.00,,2013-03-18 11:52:00,
2013-03-18 07:02:00,29.0,28.0,-100.00,South,175,16.0,21.0,96,0.00,,,0.00,,2013-03-18 12:02:00,
2013-03-18 07:12:00,29.0,28.0,-100.00,South,175,17.0,21.0,96,0.00,,,0.00,,2013-03-18 12:12:00,
2013-03-18 07:22:00,29.0,28.0,-100.00,South,175,16.0,20.0,96,0.00,,,0.00,,2013-03-18 12:22:00,
2013-03-18 07:32:00,29.0,28.0,-100.00,South,175,17.0,21.0,96,0.00,,,0.00,,2013-03-18 12:32:00,
2013-03-18 07:42:00,29.0,28.0,-100.00,South,175,17.0,22.0,96,0.00,,,0.00,,2013-03-18 12:42:00,
2013-03-18 07:52:00,29.0,28.0,-100.00,South,180,17.0,21.0,96,0.00,,,0.00,,2013-03-18 12:52:00,
2013-03-18 08:02:00,29.0,28.0,-100.00,South,180,16.0,22.0,96,0.00,,,0.00,,2013-03-18 13:02:00,
2013-03-18 08:12:00,29.0,28.0,-100.00,South,185,14.0,21.0,96,0.00,,,0.00,,2013-03-18 13:12:00,
2013-03-18 08:22:00,30.0,28.0,-100.00,SSW,195,16.0,19.0,96,0.00,,,0.00,,2013-03-18 13:22:00,
2013-03-18 08:32:00,30.0,28.0,-100.00,SSW,200,13.0,17.0,96,0.00,,,0.00,,2013-03-18 13:32:00,
2013-03-18 08:42:00,30.0,28.0,-100.00,SSW,200,14.0,20.0,96,0.00,,,0.00,,2013-03-18 13:42:00,
2013-03-18 08:52:00,30.0,28.0,-100.00,SSW,200,15.0,18.0,96,0.00,,,0.00,,2013-03-18 13:52:00,
2013-03-18 09:02:00,30.0,30.0,-100.00,SSW,210,12.0,16.0,96,0.00,,,0.00,,2013-03-18 14:02:00,
2013-03-18 09:12:00,31.0,30.0,-100.00,WSW,240,14.0,21.0,96,0.00,,,0.00,,2013-03-18 14:12:00,
2013-03-18 09:22:00,26.0,25.0,-100.00,WNW,285,18.0,30.0,96,0.00,,,0.00,,2013-03-18 14:22:00,
2013-03-18 09:32:00,24.0,23.0,-100.00,WNW,285,21.0,28.0,94,0.00,,,0.00,,2013-03-18 14:32:00,
2013-03-18 09:42:00,23.0,21.0,-100.00,WNW,285,20.0,29.0,93,0.00,,,0.00,,2013-03-18 14:42:00,
2013-03-18 09:52:00,22.0,21.0,-100.00,WNW,290,17.0,29.0,92,0.00,,,0.00,,2013-03-18 14:52:00,
2013-03-18 10:02:00,21.0,19.0,-100.00,WNW,285,20.0,26.0,91,0.00,,,0.00,,2013-03-18 15:02:00,
2013-03-18 10:12:00,22.0,19.0,-100.00,WNW,295,14.0,24.0,90,0.00,,,0.00,,2013-03-18 15:12:00,
2013-03-18 10:22:00,21.0,18.0,-100.00,West,280,21.0,26.0,88,0.00,,,0.00,,2013-03-18 15:22:00,
2013-03-18 10:33:00,20.0,16.0,-100.00,West,280,22.0,29.0,85,0.00,,,0.00,,2013-03-18 15:33:00,
2013-03-18 10:42:00,20.0,16.0,-100.00,WNW,295,19.0,28.0,81,0.00,,,0.00,,2013-03-18 15:42:00,
2013-03-18 10:52:00,20.0,16.0,-100.00,WNW,285,16.0,26.0,80,0.00,,,0.00,,2013-03-18 15:52:00,
2013-03-18 11:02:00,20.0,14.0,-100.00,West,280,19.0,27.0,79,0.00,,,0.00,,2013-03-18 16:02:00,
2013-03-18 11:12:00,20.0,14.0,-100.00,WNW,285,19.0,27.0,79,0.00,,,0.00,,2013-03-18 16:12:00,
2013-03-18 11:22:00,19.0,14.0,-100.00,WNW,295,19.0,29.0,77,0.00,,,0.00,,2013-03-18 16:22:00,
2013-03-18 11:32:00,19.0,12.0,-100.00,WNW,295,21.0,26.0,75,0.00,,,0.00,,2013-03-18 16:32:00,
2013-03-18 11:42:00,19.0,12.0,-100.00,WNW,295,21.0,29.0,76,0.00,,,0.00,,2013-03-18 16:42:00,
2013-03-18 11:52:00,18.0,12.0,-100.00,WNW,295,21.0,29.0,78,0.00,,,0.00,,2013-03-18 16:52:00,
2013-03-18 12:02:00,18.0,12.0,-100.00,WNW,295,23.0,29.0,75,0.00,,,0.00,,2013-03-18 17:02:00,
2013-03-18 12:12:00,18.0,12.0,-100.00,WNW,290,24.0,30.0,75,0.00,,,0.00,,2013-03-18 17:12:00,
2013-03-18 12:22:00,18.0,12.0,-100.00,WNW,300,20.0,30.0,73,0.00,,,0.00,,2013-03-18 17:22:00,
2013-03-18 12:32:00,19.0,12.0,-100.00,WNW,295,24.0,32.0,72,0.00,,,0.00,,2013-03-18 17:32:00,
2013-03-18 12:42:00,19.0,12.0,-100.00,WNW,285,21.0,27.0,75,0.00,,,0.00,,2013-03-18 17:42:00,
2013-03-18 12:52:00,18.0,12.0,-100.00,WNW,300,21.0,28.0,77,0.00,,,0.00,,2013-03-18 17:52:00,
2013-03-18 13:02:00,18.0,10.0,-100.00,WNW,300,22.0,32.0,73,0.00,,,0.00,,2013-03-18 18:02:00,
2013-03-18 13:12:00,18.0,10.0,-100.00,WNW,295,21.0,32.0,72,0.00,,,0.00,,2013-03-18 18:12:00,
2013-03-18 13:22:00,18.0,10.0,-100.00,West,280,23.0,32.0,74,0.00,,,0.00,,2013-03-18 18:22:00,
2013-03-18 13:32:00,17.0,10.0,-100.00,WNW,290,24.0,32.0,72,0.00,,,0.00,,2013-03-18 18:32:00,
2013-03-18 13:42:00,17.0,9.0,-100.00,WNW,295,24.0,33.0,71,0.00,,,0.00,,2013-03-18 18:42:00,
2013-03-18 13:52:00,17.0,9.0,-100.00,WNW,300,21.0,28.0,71,0.00,,,0.00,,2013-03-18 18:52:00,
2013-03-18 14:02:00,17.0,10.0,-100.00,WNW,290,22.0,30.0,75,0.00,,,0.00,,2013-03-18 19:02:00,
2013-03-18 14:12:00,16.0,9.0,-100.00,WNW,285,25.0,31.0,73,0.00,,,0.00,,2013-03-18 19:12:00,
2013-03-18 14:22:00,17.0,9.0,-100.00,WNW,295,24.0,32.0,71,0.00,,,0.00,,2013-03-18 19:22:00,
2013-03-18 14:32:00,16.0,9.0,-100.00,WNW,290,24.0,31.0,72,0.00,,,0.00,,2013-03-18 19:32:00,
2013-03-18 14:42:00,17.0,9.0,-100.00,WNW,295,19.0,32.0,70,0.00,,,0.00,,2013-03-18 19:42:00,
2013-03-18 14:52:00,16.0,9.0,-100.00,WNW,295,22.0,32.0,72,0.00,,,0.00,,2013-03-18 19:52:00,
2013-03-18 15:02:00,17.0,9.0,-100.00,WNW,290,17.0,29.0,71,0.00,,,0.00,,2013-03-18 20:02:00,
2013-03-18 15:12:00,17.0,10.0,-100.00,WNW,295,22.0,28.0,73,0.00,,,0.00,,2013-03-18 20:12:00,
2013-03-18 15:22:00,16.0,9.0,-100.00,WNW,295,24.0,34.0,71,0.00,,,0.00,,2013-03-18 20:22:00,
2013-03-18 15:32:00,17.0,10.0,-100.00,WNW,295,19.0,31.0,72,0.00,,,0.00,,2013-03-18 20:32:00,
2013-03-18 15:42:00,17.0,10.0,-100.00,WNW,285,21.0,34.0,73,0.00,,,0.00,,2013-03-18 20:42:00,
2013-03-18 15:52:00,17.0,9.0,-100.00,West,280,24.0,34.0,73,0.00,,,0.00,,2013-03-18 20:52:00,
2013-03-18 16:02:00,17.0,10.0,-100.00,WNW,285,25.0,34.0,72,0.00,,,0.00,,2013-03-18 21:02:00,
2013-03-18 16:12:00,17.0,10.0,-100.00,WNW,285,25.0,35.0,74,0.00,,,0.00,,2013-03-18 21:12:00,
2013-03-18 16:22:00,17.0,10.0,-100.00,WNW,295,24.0,35.0,75,0.00,,,0.00,,2013-03-18 21:22:00,
2013-03-18 16:32:00,17.0,10.0,-100.00,WNW,285,23.0,30.0,76,0.00,,,0.00,,2013-03-18 21:32:00,
2013-03-18 16:42:00,17.0,10.0,-100.00,WNW,285,29.0,35.0,76,0.00,,,0.00,,2013-03-18 21:42:00,
2013-03-18 16:52:00,17.0,10.0,-100.00,WNW,295,27.0,42.0,74,0.00,,,0.00,,2013-03-18 21:52:00,
2013-03-18 17:03:00,16.0,9.0,-100.00,WNW,295,21.0,32.0,73,0.00,,,0.00,,2013-03-18 22:03:00,
2013-03-18 17:13:00,16.0,10.0,-100.00,WNW,285,23.0,31.0,75,0.00,,,0.00,,2013-03-18 22:13:00,
2013-03-18 17:23:00,16.0,9.0,-100.00,WNW,285,24.0,36.0,75,0.00,,,0.00,,2013-03-18 22:23:00,
2013-03-18 17:33:00,15.0,9.0,-100.00,WNW,295,24.0,32.0,76,0.00,,,0.00,,2013-03-18 22:33:00,
2013-03-18 17:42:00,15.0,10.0,-100.00,WNW,285,25.0,31.0,77,0.00,,,0.00,,2013-03-18 22:42:00,
2013-03-18 17:52:00,16.0,9.0,-100.00,WNW,295,22.0,31.0,75,0.00,,,0.00,,2013-03-18 22:52:00,
2013-03-18 18:02:00,15.0,9.0,-100.00,WNW,290,27.0,41.0,74,0.00,,,0.00,,2013-03-18 23:02:00,
2013-03-18 18:12:00,16.0,9.0,-100.00,WNW,300,24.0,38.0,74,0.00,,,0.00,,2013-03-18 23:12:00,
2013-03-18 18:22:00,15.0,9.0,-100.00,WNW,285,27.0,34.0,76,0.00,,,0.00,,2013-03-18 23:22:00,
2013-03-18 18:32:00,15.0,9.0,-100.00,WNW,295,26.0,35.0,76,0.00,,,0.00,,2013-03-18 23:32:00,
2013-03-18 18:42:00,15.0,9.0,-100.00,WNW,295,24.0,39.0,76,0.00,,,0.00,,2013-03-18 23:42:00,
2013-03-18 18:52:00,14.0,9.0,-100.00,WNW,295,27.0,35.0,77,0.00,,,0.00,,2013-03-18 23:52:00,
2013-03-18 19:02:00,14.0,9.0,-100.00,WNW,295,24.0,35.0,77,0.00,,,0.00,,2013-03-19 00:02:00,
2013-03-18 19:12:00,14.0,9.0,-100.00,WNW,295,21.0,33.0,77,0.00,,,0.00,,2013-03-19 00:12:00,
2013-03-18 19:22:00,14.0,9.0,-100.00,WNW,290,24.0,32.0,78,0.00,,,0.00,,2013-03-19 00:22:00,
2013-03-18 19:32:00,14.0,9.0,-100.00,WNW,295,26.0,31.0,79,0.00,,,0.00,,2013-03-19 00:32:00,
2013-03-18 19:42:00,14.0,9.0,-100.00,WNW,295,24.0,33.0,79,0.00,,,0.00,,2013-03-19 00:42:00,
2013-03-18 19:52:00,13.0,9.0,-100.00,WNW,285,22.0,35.0,80,0.00,,,0.00,,2013-03-19 00:52:00,
2013-03-18 20:02:00,13.0,9.0,-100.00,WNW,290,23.0,31.0,81,0.00,,,0.00,,2013-03-19 01:02:00,
2013-03-18 20:12:00,13.0,9.0,-100.00,WNW,290,22.0,29.0,81,0.00,,,0.00,,2013-03-19 01:12:00,
2013-03-18 20:22:00,13.0,9.0,-100.00,WNW,290,22.0,29.0,82,0.00,,,0.00,,2013-03-19 01:22:00,
2013-03-18 20:32:00,13.0,9.0,-100.00,WNW,285,24.0,31.0,82,0.00,,,0.00,,2013-03-19 01:32:00,
2013-03-18 20:42:00,13.0,9.0,-100.00,WNW,295,22.0,30.0,81,0.00,,,0.00,,2013-03-19 01:42:00,
2013-03-18 20:52:00,13.0,9.0,-100.00,WNW,295,20.0,38.0,81,0.00,,,0.00,,2013-03-19 01:52:00,
2013-03-18 21:02:00,13.0,9.0,-100.00,WNW,295,21.0,30.0,82,0.00,,,0.00,,2013-03-19 02:02:00,
2013-03-18 21:12:00,13.0,9.0,-100.00,WNW,290,24.0,31.0,82,0.00,,,0.00,,2013-03-19 02:12:00,
2013-03-18 21:22:00,12.0,9.0,-100.00,WNW,300,24.0,36.0,81,0.00,,,0.00,,2013-03-19 02:22:00,
2013-03-18 21:32:00,12.0,7.0,-100.00,WNW,295,23.0,32.0,81,0.00,,,0.00,,2013-03-19 02:32:00,
2013-03-18 21:42:00,12.0,9.0,-100.00,WNW,295,26.0,32.0,81,0.00,,,0.00,,2013-03-19 02:42:00,
2013-03-18 21:52:00,12.0,9.0,-100.00,WNW,300,24.0,34.0,81,0.00,,,0.00,,2013-03-19 02:52:00,
2013-03-18 22:02:00,12.0,7.0,-100.00,WNW,300,26.0,35.0,81,0.00,,,0.00,,2013-03-19 03:02:00,
2013-03-18 22:12:00,12.0,7.0,-100.00,WNW,295,24.0,32.0,81,0.00,,,0.00,,2013-03-19 03:12:00,
2013-03-18 22:22:00,12.0,7.0,-100.00,WNW,285,23.0,31.0,81,0.00,,,0.00,,2013-03-19 03:22:00,
2013-03-18 22:32:00,12.0,7.0,-100.00,WNW,295,23.0,30.0,81,0.00,,,0.00,,2013-03-19 03:32:00,
2013-03-18 22:43:00,12.0,7.0,-100.00,WNW,290,18.0,30.0,81,0.00,,,0.00,,2013-03-19 03:43:00,
2013-03-18 22:53:00,12.0,7.0,-100.00,NW,310,21.0,35.0,81,0.00,,,0.00,,2013-03-19 03:53:00,
2013-03-18 23:03:00,11.0,7.0,-100.00,WNW,300,22.0,34.0,81,0.00,,,0.00,,2013-03-19 04:03:00,
2013-03-18 23:13:00,11.0,7.0,-100.00,NW,305,24.0,31.0,81,0.00,,,0.00,,2013-03-19 04:13:00,
2013-03-18 23:23:00,11.0,7.0,-100.00,WNW,295,22.0,31.0,80,0.00,,,0.00,,2013-03-19 04:23:00,
2013-03-18 23:33:00,11.0,7.0,-100.00,WNW,300,21.0,29.0,80,0.00,,,0.00,,2013-03-19 04:33:00,
2013-03-18 23:43:00,11.0,7.0,-100.00,WNW,295,19.0,34.0,80,0.00,,,0.00,,2013-03-19 04:43:00,
2013-03-18 23:52:00,11.0,5.0,-100.00,WNW,290,22.0,32.0,80,0.00,,,0.00,,2013-03-19 04:52:00,